Location: Chippewa Lake
(41.0698°N, 81.9010°W)
Time: 02:13:27
(UTC+00:00)

Cosmos 1269 Rocket - Pass Details

Date: 09 May 2021
Orbit: 773 x 778 km, 74.1° (Epoch: 24 June)

Event Time Altitude Azimuth Distance (km) Brightness Sun altitude
Rises 06:51:44 0° 340° (NNW) 3,263 7.9 -28.1°
Reaches altitude 10° 06:54:07 10° 341° (NNW) 2,331 7.0 -27.9°
Enters shadow 06:59:08 81° 345° (NNW) 790 4.0 -27.5°
